When you browse on this site, cookies collect data to enhance your experience and personalize the content and advertising you see.
Visit our Privacy Policy to learn more. By continuing to use the site, you agree to this use of cookies and data.
  • In Österreich
  • Länderverzeichnis
  • Für 7 Tage
  • Wassertemperatur
  • Satellitenkarten
  • Wetterkarte
  • News
  • Widgets
  • user-avatar
    Anmelden

    Stündliche Wetter Chipinge

    Heute, 19 Dezember, Mittwoch

    Zeit Temperatur Niederschläge Wind Luftdruck Luftfeuchtigkeit
    00:00 +21°C° 0 mm 2 m/S 669 mmHg 77%
    01:00 +22°C° 0 mm 1 m/S 669 mmHg 79%
    02:00 +21°C° 0 mm 1 m/S 669 mmHg 83%
    03:00 +21°C° 0 mm 1 m/S 668 mmHg 84%
    04:00 +21°C° 0 mm 1 m/S 668 mmHg 84%
    05:00 +20°C° 0 mm 1 m/S 668 mmHg 84%
    06:00 +23°C° 0 mm 1 m/S 669 mmHg 72%
    07:00 +26°C° 0 mm 1 m/S 670 mmHg 60%
    08:00 +29°C° 0 mm 1 m/S 671 mmHg 48%
    09:00 +31°C° 0 mm 1 m/S 671 mmHg 40%
    10:00 +34°C° 0 mm 1 m/S 671 mmHg 32%
    11:00 +36°C° 0 mm 1 m/S 671 mmHg 24%
    12:00 +36°C° 0 mm 1 m/S 671 mmHg 22%
    13:00 +38°C° 0 mm 2 m/S 670 mmHg 21%
    14:00 +38°C° 0 mm 2 m/S 669 mmHg 19%
    15:00 +37°C° 0 mm 2 m/S 669 mmHg 21%
    16:00 +36°C° 0 mm 2 m/S 669 mmHg 22%
    17:00 +35°C° 0 mm 2 m/S 668 mmHg 24%
    18:00 +32°C° 0 mm 2 m/S 668 mmHg 33%
    19:00 +29°C° 0 mm 3 m/S 668 mmHg 42%
    20:00 +26°C° 0 mm 3 m/S 668 mmHg 51%
    21:00 +25°C° 0 mm 3 m/S 668 mmHg 59%
    22:00 +24°C° 0 mm 2 m/S 669 mmHg 68%
    23:00 +23°C° 0 mm 2 m/S 669 mmHg 76%

    Morgen, 20 Dezember, Donnerstag

    Zeit Temperatur Niederschläge Wind Luftdruck Luftfeuchtigkeit
    00:00 +23°C° 0 mm 2 m/S 668 mmHg 78%
    01:00 +21°C° 0 mm 2 m/S 668 mmHg 81%
    02:00 +22°C° 0 mm 1 m/S 668 mmHg 83%
    03:00 +22°C° 0 mm 1 m/S 668 mmHg 82%
    04:00 +21°C° 0 mm 1 m/S 668 mmHg 80%
    05:00 +21°C° 0 mm 1 m/S 668 mmHg 79%
    06:00 +25°C° 0 mm 1 m/S 669 mmHg 67%
    07:00 +28°C° 0 mm 1 m/S 670 mmHg 55%
    08:00 +31°C° 0 mm 1 m/S 671 mmHg 43%
    09:00 +32°C° 0 mm 2 m/S 671 mmHg 37%
    10:00 +35°C° 0 mm 2 m/S 671 mmHg 31%
    11:00 +36°C° 0 mm 3 m/S 671 mmHg 26%
    12:00 +36°C° 0 mm 4 m/S 671 mmHg 27%
    13:00 +36°C° 0 mm 4 m/S 670 mmHg 28%
    14:00 +36°C° 0 mm 5 m/S 670 mmHg 29%
    15:00 +35°C° 0 mm 4 m/S 670 mmHg 32%
    16:00 +34°C° 0 mm 4 m/S 670 mmHg 35%
    17:00 +33°C° 0 mm 4 m/S 669 mmHg 38%
    18:00 +29°C° 0.1 mm 4 m/S 669 mmHg 47%
    19:00 +27°C° 0.1 mm 3 m/S 670 mmHg 55%
    20:00 +25°C° 0.1 mm 2 m/S 670 mmHg 64%
    21:00 +24°C° 0 mm 2 m/S 670 mmHg 69%
    22:00 +23°C° 0 mm 2 m/S 670 mmHg 75%
    23:00 +21°C° 0 mm 2 m/S 671 mmHg 80%

    übermorgen, 21 Dezember, Freitag

    Zeit Temperatur Niederschläge Wind Luftdruck Luftfeuchtigkeit
    00:00 +22°C° 0.1 mm 1 m/S 671 mmHg 82%
    01:00 +21°C° 0.1 mm 1 m/S 670 mmHg 84%
    02:00 +21°C° 0.1 mm 1 m/S 670 mmHg 87%
    03:00 +21°C° 0 mm 1 m/S 670 mmHg 88%
    04:00 +20°C° 0 mm 1 m/S 670 mmHg 89%
    05:00 +20°C° 0 mm 1 m/S 670 mmHg 90%
    06:00 +22°C° 0 mm 1 m/S 671 mmHg 81%
    07:00 +24°C° 0 mm 2 m/S 672 mmHg 73%
    08:00 +25°C° 0 mm 2 m/S 673 mmHg 64%
    09:00 +27°C° 0.1 mm 2 m/S 673 mmHg 59%
    10:00 +28°C° 0.1 mm 3 m/S 673 mmHg 53%
    11:00 +29°C° 0.1 mm 3 m/S 673 mmHg 48%
    12:00 +29°C° 0.1 mm 4 m/S 673 mmHg 48%
    13:00 +29°C° 0.1 mm 4 m/S 672 mmHg 49%
    14:00 +30°C° 0.1 mm 4 m/S 671 mmHg 50%
    15:00 +29°C° 0.3 mm 4 m/S 671 mmHg 54%
    16:00 +28°C° 0.3 mm 3 m/S 671 mmHg 58%
    17:00 +27°C° 0.3 mm 3 m/S 670 mmHg 63%
    18:00 +25°C° 0.1 mm 3 m/S 670 mmHg 70%
    19:00 +23°C° 0.1 mm 2 m/S 670 mmHg 77%
    20:00 +22°C° 0.1 mm 1 m/S 670 mmHg 84%
    21:00 +21°C° 0 mm 1 m/S 670 mmHg 86%
    22:00 +21°C° 0 mm 1 m/S 671 mmHg 88%
    23:00 +21°C° 0 mm 1 m/S 671 mmHg 90%

    22 Dezember, Samstag

    Zeit Temperatur Niederschläge Wind Luftdruck Luftfeuchtigkeit
    00:00 +20°C° 0 mm 1 m/S 670 mmHg 92%
    01:00 +20°C° 0 mm 1 m/S 670 mmHg 93%
    02:00 +20°C° 0 mm 1 m/S 669 mmHg 94%
    03:00 +19°C° 0 mm 1 m/S 670 mmHg 94%
    04:00 +19°C° 0 mm 1 m/S 670 mmHg 95%
    05:00 +19°C° 0 mm 1 m/S 670 mmHg 96%
    06:00 +21°C° 0 mm 1 m/S 671 mmHg 85%
    07:00 +24°C° 0 mm 1 m/S 672 mmHg 75%
    08:00 +26°C° 0 mm 1 m/S 672 mmHg 65%
    09:00 +28°C° 0 mm 1 m/S 673 mmHg 57%
    10:00 +30°C° 0 mm 2 m/S 673 mmHg 50%
    11:00 +32°C° 0 mm 2 m/S 673 mmHg 42%
    12:00 +32°C° 0 mm 2 m/S 672 mmHg 41%
    13:00 +33°C° 0 mm 3 m/S 671 mmHg 40%
    14:00 +34°C° 0 mm 3 m/S 670 mmHg 38%
    15:00 +33°C° 0 mm 3 m/S 670 mmHg 42%
    16:00 +31°C° 0 mm 3 m/S 669 mmHg 45%
    17:00 +29°C° 0 mm 3 m/S 669 mmHg 49%
    18:00 +27°C° 0 mm 3 m/S 669 mmHg 58%
    19:00 +25°C° 0 mm 2 m/S 669 mmHg 68%
    20:00 +23°C° 0 mm 2 m/S 669 mmHg 77%
    21:00 +21°C° 0 mm 2 m/S 669 mmHg 82%
    22:00 +21°C° 0 mm 2 m/S 669 mmHg 86%
    23:00 +21°C° 0 mm 1 m/S 669 mmHg 90%

    23 Dezember, Sonntag

    Zeit Temperatur Niederschläge Wind Luftdruck Luftfeuchtigkeit
    00:00 +21°C° 0 mm 1 m/S 668 mmHg 91%
    01:00 +20°C° 0 mm 1 m/S 668 mmHg 92%
    02:00 +20°C° 0 mm 1 m/S 668 mmHg 93%
    03:00 +20°C° 0 mm 1 m/S 668 mmHg 94%
    04:00 +19°C° 0 mm 1 m/S 668 mmHg 95%
    05:00 +19°C° 0 mm 1 m/S 668 mmHg 95%
    06:00 +22°C° 0 mm 1 m/S 669 mmHg 82%
    07:00 +24°C° 0 mm 1 m/S 670 mmHg 69%
    08:00 +27°C° 0 mm 1 m/S 672 mmHg 56%
    09:00 +29°C° 0 mm 1 m/S 672 mmHg 48%
    10:00 +31°C° 0 mm 2 m/S 672 mmHg 40%
    11:00 +34°C° 0 mm 2 m/S 672 mmHg 32%
    12:00 +34°C° 0 mm 3 m/S 671 mmHg 32%
    13:00 +34°C° 0 mm 3 m/S 671 mmHg 32%
    14:00 +35°C° 0 mm 4 m/S 670 mmHg 32%
    15:00 +34°C° 0 mm 4 m/S 670 mmHg 36%
    16:00 +33°C° 0 mm 4 m/S 669 mmHg 40%
    17:00 +30°C° 0 mm 4 m/S 669 mmHg 44%
    18:00 +28°C° 0 mm 3 m/S 669 mmHg 52%
    19:00 +26°C° 0 mm 3 m/S 669 mmHg 60%
    20:00 +24°C° 0 mm 2 m/S 669 mmHg 68%
    21:00 +23°C° 0 mm 2 m/S 669 mmHg 73%
    22:00 +21°C° 0 mm 2 m/S 669 mmHg 79%
    23:00 +20°C° 0 mm 2 m/S 669 mmHg 85%

    24 Dezember, Montag

    Zeit Temperatur Niederschläge Wind Luftdruck Luftfeuchtigkeit
    00:00 +21°C° 0 mm 1 m/S 669 mmHg 87%
    01:00 +20°C° 0 mm 1 m/S 668 mmHg 89%
    02:00 +20°C° 0 mm 1 m/S 668 mmHg 91%
    03:00 +19°C° 0 mm 1 m/S 668 mmHg 91%
    04:00 +19°C° 0 mm 1 m/S 668 mmHg 92%
    05:00 +19°C° 0 mm 1 m/S 668 mmHg 92%
    06:00 +22°C° 0 mm 1 m/S 669 mmHg 79%
    07:00 +25°C° 0 mm 1 m/S 670 mmHg 66%
    08:00 +28°C° 0 mm 1 m/S 671 mmHg 53%
    09:00 +30°C° 0 mm 1 m/S 671 mmHg 47%
    10:00 +31°C° 0 mm 1 m/S 672 mmHg 42%
    11:00 +34°C° 0 mm 2 m/S 672 mmHg 36%
    12:00 +34°C° 0 mm 2 m/S 671 mmHg 35%
    13:00 +35°C° 0 mm 2 m/S 670 mmHg 34%
    14:00 +35°C° 0 mm 3 m/S 670 mmHg 33%
    15:00 +34°C° 0 mm 3 m/S 669 mmHg 36%
    16:00 +33°C° 0 mm 3 m/S 669 mmHg 39%
    17:00 +32°C° 0 mm 4 m/S 669 mmHg 42%
    18:00 +29°C° 0 mm 3 m/S 669 mmHg 50%
    19:00 +27°C° 0 mm 2 m/S 669 mmHg 57%
    20:00 +25°C° 0 mm 2 m/S 668 mmHg 64%
    21:00 +24°C° 0 mm 2 m/S 668 mmHg 69%
    22:00 +23°C° 0 mm 2 m/S 668 mmHg 74%
    23:00 +21°C° 0 mm 2 m/S 668 mmHg 79%
    Mehr zeigen